Location: GMARS
(34.2910°N, 116.3838°W)
Time: 07:02:35
(UTC-08:00)

Daily predictions for brighter satellites

Satellite Brightness Start Highest point End
(mag) Time Altitude Azimuth Time Altitude Azimuth Time Altitude Azimuth
BREEZE-M DEB (TANK) 3.4 17:27:00 10° NW 17:30:03 79° SW 17:39:17 10° SE
Cosmos 1634 Rocket 4.1 17:26:13 10° N 17:32:16 56° E 17:38:17 10° SSE
Elektron 3 4.1 17:30:54 10° NNW 17:35:25 66° NE 17:38:19 10° SE
OTV 4 0.7 17:35:19 10° WNW 17:38:12 49° N 17:41:02 10° E
Cosmos 2084 4.0 17:34:49 10° SW 17:38:39 51° WNW 17:42:23 10° NNE
Cosmos 1980 3.7 17:33:43 10° SSW 17:39:22 76° ESE 17:45:02 10° NNE
NOSS 0 Rocket 4.0 17:33:36 10° SSW 17:39:50 85° ESE 17:46:04 10° NNE
Cosmos 540 Rocket 3.4 17:37:26 10° S 17:42:34 71° ESE 17:47:42 10° NNE
Meteor 2-2 Rocket 4.3 17:37:01 10° N 17:42:40 88° E 17:48:19 10° S
SJ-6B 4.3 17:40:08 10° ESE 17:42:54 18° ENE 17:45:41 10° NNE
Cosmos 44 3.5 17:40:16 10° SSW 17:45:34 88° WNW 17:50:43 10° NNE
ALOS 3.9 17:44:31 10° E 17:46:34 13° ENE 17:48:38 10° NE
OAO 1 Rocket 4.4 17:43:21 10° W 17:48:40 82° N 17:53:28 13° E
Milstar 3 3.6 17:44:27 10° W 17:51:02 47° S 17:57:50 10° ESE
Meteor 2-10 4.4 17:47:06 10° N 17:51:54 40° ENE 17:56:47 10° SSE
Cosmos 1461 3.8 17:48:15 10° S 17:51:58 30° ESE 17:54:49 14° ENE
Cosmos 1703 4.1 17:50:05 10° SSE 17:53:26 28° E 17:56:48 10° NNE
Resurs 01 Rocket 3.5 17:55:07 12° NE 17:55:07 12° NE 17:56:05 10° NE
Cosmos 2333 Rocket 2.6 17:48:40 10° SSW 17:54:15 66° WNW 17:59:53 10° NNE
USA 215 3.8 17:50:26 10° E 17:56:22 38° NE 18:02:17 10° NNW
YAOGAN 1 4.0 17:52:16 10° S 17:56:22 42° W 18:00:29 10° NNW
Cosmos 371 Rocket 4.3 17:53:02 10° SW 17:57:40 48° WNW 18:02:19 10° N
OAO 3 Rocket 4.3 17:53:44 10° W 17:58:21 42° SSW 18:02:53 10° SE
Cosmos 2058 2.8 17:54:22 10° S 17:58:26 66° E 18:02:29 10° NNE
COSMO-SKYMED 1 2.8 17:55:04 10° N 17:59:24 75° WNW 18:03:42 10° SSW
FREGAT/IRIS 3.9 17:58:56 10° SE 18:01:19 21° ENE 18:01:43 21° ENE
Cosmos 2219 Rocket 3.4 17:58:06 10° SW 18:03:23 41° WNW 18:08:42 10° N
Haruka 3.6 18:01:54 10° WSW 18:05:40 65° SSE 18:13:50 16° E
Cosmos 1626 2.9 18:03:32 10° SSE 18:06:49 30° E 18:08:48 19° NE
Cosmos 1666 Rocket 4.2 18:04:29 10° SSE 18:08:18 32° E 18:11:20 15° NE
Atlas Centaur 2 4.0 18:04:33 10° WSW 18:08:27 21° SSW 18:11:47 10° SSE
Cosmos 1125 Rocket 3.4 18:05:38 10° NNW 18:10:51 88° ENE 18:16:02 10° SSE
Cosmos 1340 Rocket 2.6 18:07:32 10° S 18:11:29 76° E 18:15:24 10° NNE
Cosmos 2278 Rocket 2.1 18:08:57 10° NNW 18:14:39 75° ENE 18:20:17 10° SSE
Spot 2 Rocket 4.4 18:12:26 10° ESE 18:16:33 26° ENE 18:20:40 10° NNE
SL-14 R/B 4.4 18:13:46 10° SSW 18:17:30 45° W 18:21:19 10° N
Meteor 1-27 4.2 18:12:50 10° N 18:18:40 79° E 18:24:30 10° SSE
NOAA 12 4.0 18:14:06 10° SSE 18:19:16 66° ENE 18:24:28 10° N
Cosmos 1484 Rocket 4.4 18:18:00 10° SSW 18:21:37 37° W 18:25:17 10° NNW
Cosmos 1356 Rocket 3.5 18:17:51 10° S 18:21:41 47° E 18:23:48 23° NNE
Cosmos 2279 Rocket 3.9 18:17:03 10° N 18:23:17 86° E 18:29:32 10° S
Cosmos 1538 Rocket 4.1 18:20:11 10° S 18:25:19 57° ESE 18:29:13 18° NNE
Cosmos 1184 Rocket 3.9 18:22:24 10° SSE 18:24:31 28° SE 18:24:31 28° SE
Cosmos 1726 3.6 18:23:45 10° NNW 18:27:17 40° W 18:30:49 10° SSW
Cosmos 1300 4.3 18:28:16 10° NNW 18:31:49 36° W 18:35:20 10° SSW
USA 229 DEB 4.0 18:27:43 10° S 18:34:07 45° ESE 18:37:00 30° ENE
USA 229 4.0 18:27:50 10° S 18:34:13 44° ESE 18:37:03 30° ENE
H-2A ROCKET BODY 3.5 18:07:12 10° WSW 18:35:23 61° S 18:39:02 27° ESE
Cosmos 2237 Rocket 3.6 18:30:35 10° SW 18:35:45 37° WNW 18:40:57 10° N
FAST Rocket 4.0 18:34:06 10° S 18:36:58 75° W 18:37:02 74° WNW
Aureole 2 Rocket 4.2 18:34:08 10° SW 18:37:26 35° WNW 18:41:02 10° N
Nadezhda 4 Rocket 3.9 18:33:16 10° S 18:39:26 73° E 18:45:43 10° N
Intelsat 5-1 Rocket 3.9 18:38:25 10° SW 18:40:47 19° S 18:42:25 16° SE
Cosmos 304 Rocket 4.2 18:36:14 10° SSW 18:40:58 62° WNW 18:45:19 12° N
SL-16 R/B 2.2 18:35:23 10° SSW 18:41:02 83° WNW 18:45:34 17° NNE
Aureole 1 Rocket 3.7 18:37:31 10° S 18:42:07 50° E 18:44:10 35° NE
Hubble Space Telescope 3.5 18:40:41 10° SW 18:42:29 13° SSW 18:44:17 10° S
Iridium 4 Rocket 3.3 18:38:42 10° SSE 18:43:00 48° E 18:43:00 48° E
Cosmos 1805 Rocket 4.3 18:42:43 10° SSW 18:47:04 54° W 18:51:27 10° N
Lacrosse 5 rocket 1.8 18:49:05 10° NNW 18:51:54 43° N 18:51:54 43° N
Timation 1 Rocket 4.2 18:48:33 10° NNW 18:54:36 82° ENE 19:00:36 10° SSE
Cosmos 2297 3.6 18:49:18 10° NNW 18:55:01 75° ENE 19:00:25 12° SSE
Centaur AC-72 4.4 18:49:47 10° SW 18:55:11 31° SSE 19:01:10 19° ESE
Cosmos 1092 Rocket 3.9 18:51:35 10° S 18:57:51 73° E 19:04:11 10° N
Sich 1 4.0 19:04:23 10° SSW 19:08:39 48° W 19:11:18 21° NNW
Cosmos 773 Rocket 4.0 19:07:45 10° SSW 19:12:52 76° WNW 19:13:43 61° N
Cosmos 1633 Rocket 3.9 19:09:06 10° SSW 19:13:21 49° W 19:14:59 32° NNW
OTV 4 3.5 19:11:27 10° W 19:12:19 17° W 19:12:19 17° W
ALOS 2.9 19:18:57 10° S 19:23:30 54° W 19:28:04 10° NNW
FENGYUN 3A 4.1 19:20:59 10° S 19:26:14 60° W 19:31:32 10° NNW
CZ-3A R/B 2.9 19:21:46 10° NW 19:40:56 - SE 19:26:00 73° NNE
Resurs 01 Rocket 3.7 19:25:40 10° S 19:32:40 21° NW 19:34:14 10° NNW
USA 215 3.7 19:36:43 38° S 19:39:07 57° SW 19:45:33 10° NW
